ATLAS 5 CENTAUR DEB, 43976

Orbit data source: Space-Track

ATLAS 5 CENTAUR DEB, 43976 is space debris in HEO originally from a launch on Wed, 17 Sep 2014 UTC launched from the Air Force Eastern Test Range (AFETR). Debris objects in space refer to the collection of defunct objects orbiting the Earth. Examples of debris include non-operational satellites, rocket bodies, and fragments generated from explosions, collisions, or faulty payload assembly.

Loading next visibility...
Identifier
43976, 2014-055AF
Orbit
HEO
Country
Flag of USUS
Related business
Flag of USUnited Launch Alliance/Lockheed Martin (US)
Manufacturer
Unknown
Mission
Spacecraft
Bus & Motor
Unknown
Mass
Unknown
Launch date (UTC)
2014-09-17 (11 years ago)
Launch vehicle
Unknown
Launch site
Air Force Eastern Test Range (AFETR)
Object type
Payload
Rocket body
Debris
Shape & HBR
Unknown
Radar Cross Section
Small (<0.1 m²)

Expand to show TLE details & history
Last TLE update: 2 weeks ago

TLE from 2 weeks ago
0 ATLAS 5 CENTAUR DEB
1 43976U 14055AF  25250.66123168  .00000020  00000-0  00000-0 0  9993
2 43976  19.4729 176.4328 4841123 104.4534 312.1353  1.83493757 47015
Epoch: 2025-09-07T15:52Z
TLE epoch observation values (Epoch: 2025-09-07T15:52:10.417Z)
Latitude
-0.00001°
Longitude
-48.66464°
Altitude
18,212.877 km
Speed
4.275 km/s
True Right ascension
11h 45m 25s
True Declination
0° 00' 00"
Sunlit
Object was in daylight at epoch
Visualization orbit readout
Latitude
Unknown
Longitude
Unknown
Altitude
Unknown
Speed
Unknown
Apparent Right ascension
Unknown
Apparent Declination
Unknown
Sunlit
N/A
Visualization observer readout
Local Sidereal Time
22:35:15
Azimuth
Unknown
Elevation
Unknown
Doppler factor
Unknown
Orbital elements
Apogee altitude
35,451.551 km
Perigee altitude
8,162.152 km
Semi-major axis
28,184.989 km
Eccentricity
0.48411
Inclination
19.4729°
RAAN
176.4328°
Arg. of periapsis
104.4534°
True anomaly
255.46787°
Mean anomaly
312.1353°
Eccentric anomaly
285.39267°
Mean motion
0.45869 °/min
Orbital period
784.85 mins
BSTAR
0
Loading maneuver chart data...
Computing Atmospheric mass density...
Loading historical data...
Loading historical data...
Loading historical data...
Loading historical data...
Loading historical data...
Loading historical data...
Loading historical data...

Documentation

Showing up to 5 results
|